Temperature
17 17 18 18 18 17 17 17 17 17 17 17 18 18 17 17 18 18 18 18 18 18 18 18 18 18 18 18 18 18 18 18 18 18 18 18 18 18 18 18 18 18 18
17 18 18 18 17 17 17 17 17 17 17 17 17 17 17 17 18 18 18 18 18 18 18 18 18 18 18 18 18 18 18 18 18 18 18 18 18 18 18 18 18 18 18
18 17 17 17 17 17 17 17 17 17 17 17 17 17 17 17 17 17 17 17 17 17 17 17 17 17 17 18 18 18 18 17 17 17 17 17 17 18 18 18 18 18 18
17 17 17 17 17 17 17 17 17 17 17 17 17 17 17 17 17 17 17 17 17 17 17 17 17 17 17 17 17 17 17 17 17 17 17 17 17 17 17 17 18 18 18
17 17 17 17 17 17 17 17 17 17 17 17 17 17 17 17 17 17 17 17 17 17 17 17 17 17 17 17 17 17 17 17 17 17 17 17 17 17 17 17 17 17 17
17 17 17 17 17 17 17 17 17 17 17 17 17 17 17 17 17 17 17 17 17 17 17 17 17 17 17 17 17 17 17 17 17 17 17 17 17 17 17 17 17 17 17
17 17 17 17 17 17 17 17 17 17 17 17 17 17 17 17 17 17 17 17 17 17 17 17 17 17 17 17 17 17 17 16 17 17 17 17 17 17 17 17 17 17 17
17 17 17 17 17 17 17 17 17 17 17 17 17 17 17 17 17 17 17 17 17 17 17 17 17 16 16 16 16 16 16 16 16 16 16 16 16 16 16 17 17 16 16
17 17 17 17 17 17 17 17 17 17 17 17 17 17 16 16 16 16 17 17 17 17 17 16 16 16 16 16 16 16 16 16 16 16 16 16 16 16 16 16 16 16 16
17 17 17 17 17 17 17 17 17 17 17 17 17 16 16 16 16 16 16 16 17 17 16 16 16 16 16 16 16 16 16 16 16 16 16 16 16 16 16 16 16 16 16
17 17 17 17 17 17 17 16 17 17 17 16 16 16 16 16 16 16 16 16 16 16 16 16 16 16 16 16 16 16 16 15 16 16 16 15 16 16 16 16 16 16 16
17 17 17 17 17 17 16 16 16 16 16 16 16 16 16 16 16 16 16 16 16 16 16 16 16 16 16 16 16 15 15 15 15 15 15 15 15 15 15 15 15 15 15
17 17 17 17 17 17 17 16 16 16 16 16 16 16 16 16 16 16 16 16 16 16 16 16 16 16 16 16 15 15 15 15 15 15 15 15 15 15 15 15 15 15 15
17 17 17 17 17 17 17 16 16 16 16 16 16 16 16 16 16 16 16 16 15 15 15 15 15 15 15 15 15 15 15 15 15 15 15 15 14 14 14 14 14 15 15
17 17 17 17 17 17 16 16 16 16 16 16 16 16 16 16 16 16 15 15 15 15 15 15 15 15 15 15 15 15 14 14 14 14 14 14 14 14 14 14 14 14 14
17 17 17 17 17 16 16 16 16 16 16 16 16 16 16 16 16 16 15 15 15 15 15 15 15 15 15 15 14 14 14 14 14 14 14 14 14 14 14 14 14 14 14
17 17 17 16 16 16 16 16 15 15 15 15 15 15 15 15 15 15 15 15 15 15 15 15 15 15 15 14 14 14 14 14 14 14 14 14 13 13 13 13 13 13 13
17 17 16 16 16 16 15 15 15 15 15 15 15 15 15 15 15 15 15 15 15 15 15 14 14 14 14 14 14 14 13 13 13 13 13 13 13 13 13 13 13 13 13
17 17 16 16 16 15 15 15 15 15 15 15 15 15 15 15 15 15 14 14 14 14 14 14 14 14 14 14 14 13 13 13 13 13 13 13 13 13 13 12 12 12 12
17 16 16 16 15 15 15 15 15 14 14 14 14 14 14 14 14 14 14 14 14 14 14 14 14 14 14 14 13 13 13 13 13 13 12 12 12 12 12 12 12 12 12
16 16 16 15 15 15 15 14 14 14 14 14 14 14 14 14 14 14 14 14 14 14 14 13 13 13 13 13 13 13 13 13 13 13 12 12 12 12 12 12 12 12 12
16 16 16 15 15 15 14 14 14 14 14 14 13 13 14 14 14 14 14 14 13 13 13 13 13 13 13 13 13 13 12 12 12 12 12 12 12 12 12 11 11 11 11
16 16 15 15 15 15 14 14 14 14 14 13 13 13 13 13 13 13 13 13 13 13 13 13 12 12 12 12 12 12 12 12 12 12 12 12 11 11 11 11 11 11 11
16 16 15 15 15 14 14 14 14 13 13 13 13 13 13 13 13 13 13 13 13 12 12 12 12 12 12 12 12 12 12 12 12 11 11 11 11 11 11 11 11 11 11
16 15 15 15 15 14 14 14 14 13 13 13 13 13 13 13 12 12 12 12 12 12 12 12 12 12 11 11 11 12 12 12 12 11 11 11 11 11 11 10 10 10 10
15 15 15 15 14 14 14 14 13 13 13 13 13 12 12 12 12 12 12 12 12 12 12 12 11 11 11 11 11 11 11 11 11 11 11 11 10 10 10 10 10 10 10
Wind_Speed
5 8 10 10 11 11 11 12 12 12 11 12 12 11 11 10 10 10 10 10 10 10 9 9 9 9 9 9 9 9 8 8 7 7 8 9 9 9 9 8 8 7 8
7 9 11 10 11 11 11 12 12 12 12 12 12 12 11 11 11 10 10 9 9 9 9 9 9 10 9 9 9 8 8 7 6 6 7 8 8 8 8 9 8 7 9
8 10 10 10 11 11 11 11 12 12 13 13 12 12 12 12 11 11 10 9 9 9 9 10 10 10 10 9 9 8 7 7 6 6 6 6 7 8 9 9 9 8 8
8 10 10 10 11 11 11 11 11 12 13 13 12 12 11 12 12 11 10 10 10 9 9 10 10 9 9 8 8 7 7 7 7 7 6 6 7 9 9 9 9 8 8
9 12 11 10 11 11 11 12 12 12 12 12 12 12 12 12 11 11 11 11 11 10 10 10 10 9 9 8 7 7 6 7 7 7 6 7 8 9 9 9 9 9 9
9 12 11 11 11 11 11 12 12 13 12 12 12 12 12 12 12 11 11 11 11 11 10 9 10 10 9 8 7 7 6 7 7 6 7 8 8 9 9 9 8 8 8
9 11 11 11 11 11 12 12 12 12 11 11 11 11 12 12 12 11 11 11 11 10 10 9 9 9 9 8 8 8 7 7 5 6 8 8 8 9 8 8 8 8 8
9 10 11 11 11 12 12 11 11 11 10 10 10 10 11 11 11 11 11 11 10 10 10 9 9 9 8 7 7 7 7 7 6 7 8 8 9 9 9 9 9 9 9
8 8 8 10 10 11 11 11 10 9 8 8 8 7 8 9 10 10 10 10 10 9 9 8 7 7 7 6 5 6 7 8 7 6 7 8 10 10 9 9 9 9 9
6 6 6 8 9 8 9 9 9 8 6 5 5 5 5 7 9 9 9 9 9 8 7 6 5 5 4 3 3 4 6 7 7 8 8 9 11 10 9 9 9 10 10
5 4 4 5 6 8 8 8 7 6 4 3 3 2 2 5 7 8 8 8 7 6 5 4 3 3 2 2 2 4 5 6 8 8 9 10 11 10 10 10 10 10 10
4 4 4 4 4 6 6 6 4 4 3 3 4 4 4 5 5 6 7 6 5 4 3 2 1 1 1 2 4 5 6 8 7 8 9 11 11 10 10 9 10 10 10
5 3 4 4 4 4 4 4 3 3 3 5 6 6 5 4 4 5 4 3 3 2 2 2 1 2 3 4 5 6 6 7 7 8 9 11 11 10 10 10 10 10 10
5 3 3 3 3 3 4 3 3 3 3 4 5 6 5 3 3 3 3 3 3 3 3 3 3 6 6 7 7 6 7 7 7 8 10 11 11 11 11 11 11 10 10
5 4 3 2 3 3 4 2 4 4 4 5 5 5 6 3 2 3 4 4 4 4 3 3 4 5 5 6 6 6 6 7 8 8 8 10 11 11 11 11 11 10 10
5 4 3 2 3 4 3 3 3 4 4 5 5 5 7 5 4 3 4 4 4 4 4 4 4 4 4 4 5 6 6 6 7 7 8 9 10 10 11 11 11 10 10
4 5 4 3 4 5 5 4 4 4 5 4 5 6 7 6 6 5 4 3 4 6 6 5 5 4 4 5 5 5 5 6 6 7 8 8 8 9 10 10 10 10 10
4 5 5 4 4 5 5 4 3 5 5 5 6 7 7 7 7 5 3 3 5 5 4 3 3 4 4 5 4 4 4 5 6 7 9 9 9 8 8 9 9 10 10
4 5 5 4 4 5 5 3 4 5 5 5 7 7 8 8 8 6 4 4 5 4 3 4 4 3 3 3 3 3 4 4 5 7 7 8 9 9 8 8 9 10 10
4 5 5 5 4 5 3 3 3 4 4 5 5 6 8 8 8 6 4 5 5 3 3 3 3 3 3 2 3 4 3 4 5 5 5 7 8 9 9 8 7 8 10
4 4 4 4 4 3 2 2 2 2 2 3 4 6 6 7 6 4 3 4 4 3 3 4 3 3 3 2 2 2 3 4 5 4 4 4 5 7 8 8 8 8 8
3 4 4 4 4 3 3 2 2 2 2 2 3 4 5 5 5 4 3 3 3 2 3 3 3 2 1 2 2 1 1 2 3 3 3 3 4 6 7 8 9 9 9
3 3 4 4 4 4 4 2 2 2 1 1 1 2 3 5 5 5 4 4 3 2 2 2 2 2 1 2 2 2 1 0 1 2 2 3 4 4 4 6 9 9 9
3 3 3 3 4 4 4 3 2 1 1 1 1 1 2 3 4 4 3 3 2 3 2 1 2 1 2 1 2 2 1 1 1 1 2 3 4 4 4 5 6 7 9
4 3 2 3 3 3 3 3 2 2 1 1 2 2 2 3 4 3 3 3 2 2 2 2 2 2 2 1 1 1 2 2 2 1 0 1 2 3 3 3 5 6 7
4 4 3 3 3 2 2 3 3 2 2 2 2 2 1 1 2 3 3 3 3 2 2 2 2 2 2 2 2 2 2 1 1 1 1 0 1 1 2 3 3 4 6
Wind_Direction
76 81 66 58 57 57 56 53 53 54 56 56 59 63 66 67 68 70 69 69 71 70 71 81 80 76 75 73 71 70 69 72 74 74 77 77 71 68 63 55 58 60 65
94 85 71 63 61 61 60 59 59 58 59 59 61 63 65 67 68 70 69 68 71 72 70 78 79 77 75 73 70 68 65 66 65 70 82 79 73 69 65 59 60 62 63
95 91 74 67 65 63 65 66 64 63 62 60 61 64 64 65 67 69 69 66 69 72 72 72 72 73 73 71 68 64 61 59 57 63 71 76 73 67 63 62 63 61 61
91 91 80 73 70 67 69 69 67 64 63 62 62 65 66 65 65 67 68 67 69 71 73 74 71 70 70 69 66 60 56 50 48 53 58 65 69 69 64 60 60 60 59
81 89 87 81 76 73 71 69 68 67 65 64 61 62 64 64 65 65 65 67 68 70 73 72 72 71 70 68 65 55 47 42 42 49 57 65 67 70 67 63 59 59 60
86 92 93 88 82 78 74 71 69 67 65 64 62 61 63 65 64 64 65 64 64 65 68 71 72 70 68 64 57 47 37 41 41 51 58 65 70 72 68 63 59 62 65
94 97 98 93 87 83 78 73 70 67 66 65 64 65 65 65 66 67 67 64 62 64 67 70 71 69 67 63 53 42 36 35 52 60 61 60 69 74 70 65 61 62 68
98 102 106 104 96 88 82 76 73 70 68 67 68 71 72 72 71 69 69 67 64 66 68 67 68 70 66 59 51 39 33 35 47 67 64 61 70 72 70 66 64 64 65
102 109 114 117 111 100 92 84 79 74 73 74 73 77 82 83 81 79 74 71 69 71 71 70 71 73 69 58 43 33 33 31 34 56 66 64 68 68 68 66 65 65 64
94 106 120 121 119 114 111 103 96 87 80 83 87 86 93 100 95 88 82 78 74 73 77 76 76 77 68 55 37 34 33 27 51 54 60 68 67 63 64 67 67 66 63
84 83 96 111 115 113 117 118 121 113 107 98 95 90 107 106 100 95 92 90 84 81 82 85 83 79 72 56 33 42 41 59 58 61 62 71 69 65 65 68 70 68 64
87 74 85 86 91 97 96 110 116 103 111 97 79 67 57 67 86 100 115 110 106 99 90 98 117 84 26 77 56 51 62 62 61 68 69 72 71 69 69 72 74 71 67
98 79 77 75 75 83 80 82 76 83 71 54 53 60 50 53 81 104 132 135 140 113 46 58 70 54 65 69 68 65 66 68 64 66 70 71 71 70 71 73 73 71 71
103 83 74 80 83 88 80 70 63 56 53 48 41 55 57 44 36 40 61 55 61 53 24 29 44 47 44 54 64 66 63 74 75 74 70 75 72 70 70 71 71 72 70
118 111 90 71 78 75 73 61 74 57 47 49 32 45 58 50 33 41 50 45 43 42 34 28 47 48 45 39 53 62 65 67 76 85 79 79 77 72 70 67 66 67 65
118 113 95 77 78 77 69 56 62 64 63 51 28 31 53 45 43 45 54 36 29 31 34 46 57 56 57 50 43 48 58 71 76 84 88 81 81 78 72 68 63 60 62
116 111 97 76 63 67 66 50 57 57 60 50 28 30 46 47 44 46 45 44 29 29 35 42 50 48 57 57 46 44 44 46 67 80 83 81 78 78 74 70 64 61 63
113 104 95 85 71 69 61 55 52 53 48 50 39 32 36 47 55 48 40 43 39 34 32 41 50 53 48 49 41 35 45 39 49 71 80 78 72 70 71 71 66 61 60
105 104 105 93 80 76 66 58 48 57 50 47 44 34 28 30 50 54 34 41 47 38 29 39 42 56 59 55 56 48 48 46 39 60 68 72 72 70 69 69 68 62 58
96 99 105 101 92 88 80 63 51 46 42 49 47 43 30 25 41 51 40 45 46 46 31 43 52 49 59 58 58 56 57 62 55 54 59 67 68 69 68 68 68 62 56
112 109 101 103 95 91 88 75 61 45 35 44 48 46 36 32 37 47 45 49 51 54 36 43 50 53 44 49 71 49 30 50 64 58 57 63 68 67 67 65 64 66 59
130 122 116 113 109 98 83 83 94 77 49 50 45 40 36 38 31 34 50 62 70 67 46 47 55 40 30 32 53 76 43 15 22 52 69 68 72 66 63 64 61 59 60
138 134 133 127 122 112 107 88 74 74 55 46 61 38 28 42 37 32 43 63 66 80 83 58 67 58 27 1 45 62 77 94 332 20 55 68 75 66 61 64 65 58 57
140 123 125 131 124 121 117 112 117 123 119 74 84 70 28 47 51 45 38 56 70 70 80 51 69 57 54 3 351 17 38 89 107 32 17 47 71 72 67 64 62 59 60
133 127 128 129 118 117 124 132 123 86 91 78 80 73 43 45 44 47 39 42 62 78 89 59 50 46 61 46 14 0 16 17 27 96 72 8 31 56 69 75 77 66 67
123 130 137 130 122 122 113 114 115 103 94 76 62 58 39 46 28 37 51 40 48 60 64 60 63 52 42 43 27 31 54 42 338 44 93 116 56 26 43 74 79 76 79
Height
1511 1510 1509 1508 1508 1507 1507 1507 1506 1506 1506 1506 1506 1505 1505 1506 1506 1506 1507 1507 1508 1508 1508 1508 1509 1510 1510 1511 1511 1511 1512 1512 1513 1514 1514 1514 1514 1515 1515 1515 1515 1515 1515
1512 1511 1510 1509 1509 1508 1508 1508 1508 1507 1507 1507 1507 1507 1507 1507 1507 1507 1507 1508 1508 1509 1509 1509 1510 1510 1511 1511 1512 1512 1513 1513 1514 1514 1514 1514 1515 1515 1515 1515 1516 1516 1516
1512 1511 1510 1510 1510 1510 1509 1509 1509 1509 1509 1509 1508 1508 1508 1508 1508 1508 1509 1509 1509 1510 1510 1510 1510 1511 1512 1512 1512 1513 1513 1514 1514 1514 1515 1515 1515 1516 1516 1516 1516 1516 1516
1513 1511 1511 1511 1511 1511 1511 1511 1511 1511 1510 1510 1510 1510 1510 1510 1510 1510 1510 1510 1510 1511 1511 1511 1511 1512 1512 1512 1513 1513 1514 1514 1515 1515 1515 1515 1516 1516 1516 1516 1516 1516 1516
1513 1512 1512 1512 1512 1512 1512 1512 1512 1512 1512 1512 1512 1511 1511 1511 1511 1511 1511 1511 1511 1512 1512 1512 1512 1513 1513 1513 1513 1514 1514 1514 1515 1515 1515 1516 1516 1516 1516 1516 1517 1517 1516
1514 1514 1513 1514 1514 1514 1514 1514 1514 1513 1513 1513 1513 1513 1513 1512 1512 1512 1512 1512 1513 1513 1513 1513 1513 1513 1513 1513 1514 1514 1515 1515 1515 1515 1516 1516 1516 1516 1516 1516 1517 1517 1517
1516 1515 1515 1515 1515 1515 1515 1515 1515 1515 1515 1514 1514 1514 1514 1514 1514 1514 1513 1513 1514 1514 1514 1514 1514 1514 1514 1514 1514 1515 1515 1515 1515 1516 1516 1516 1516 1517 1517 1517 1517 1517 1517
1518 1517 1517 1517 1517 1517 1517 1517 1517 1517 1516 1516 1516 1516 1515 1515 1515 1515 1514 1514 1514 1514 1514 1515 1515 1515 1515 1515 1515 1515 1515 1515 1516 1516 1516 1516 1516 1516 1517 1517 1517 1517 1517
1519 1519 1519 1519 1519 1519 1519 1519 1519 1518 1518 1518 1517 1517 1517 1517 1516 1516 1516 1515 1515 1515 1515 1515 1516 1516 1516 1516 1516 1516 1516 1516 1516 1516 1516 1516 1516 1516 1516 1517 1517 1517 1517
1521 1521 1520 1520 1520 1520 1520 1520 1520 1520 1520 1519 1519 1519 1519 1518 1518 1518 1517 1517 1517 1517 1517 1517 1517 1517 1517 1517 1517 1517 1516 1516 1516 1516 1516 1516 1516 1516 1516 1517 1517 1517 1517
1522 1522 1522 1522 1522 1522 1522 1522 1522 1521 1521 1521 1521 1521 1521 1521 1520 1520 1519 1519 1518 1518 1518 1518 1518 1518 1518 1518 1518 1517 1517 1516 1516 1516 1515 1516 1516 1516 1516 1517 1517 1517 1517
1522 1523 1523 1524 1524 1524 1523 1523 1523 1523 1522 1522 1523 1522 1522 1522 1522 1521 1521 1520 1520 1519 1519 1519 1518 1518 1518 1519 1518 1518 1517 1517 1516 1516 1516 1516 1516 1516 1516 1516 1517 1517 1517
1523 1523 1524 1524 1524 1524 1524 1524 1524 1524 1524 1524 1523 1523 1523 1522 1522 1522 1521 1521 1521 1520 1520 1520 1520 1519 1519 1519 1519 1518 1518 1517 1517 1516 1516 1516 1516 1516 1516 1516 1517 1517 1517
1524 1524 1524 1525 1525 1525 1525 1525 1525 1525 1525 1524 1524 1524 1523 1523 1523 1523 1522 1522 1522 1522 1521 1521 1521 1520 1520 1520 1519 1519 1518 1517 1517 1516 1516 1516 1515 1516 1516 1516 1517 1517 1517
1524 1525 1525 1525 1525 1525 1525 1525 1526 1525 1525 1525 1525 1524 1524 1523 1523 1523 1523 1523 1522 1522 1522 1522 1521 1521 1520 1520 1520 1519 1518 1518 1517 1516 1515 1515 1515 1516 1516 1516 1517 1517 1517
1524 1525 1525 1526 1526 1525 1526 1526 1526 1526 1526 1525 1525 1525 1524 1524 1524 1523 1523 1523 1523 1522 1522 1522 1522 1521 1521 1520 1520 1519 1519 1518 1516 1516 1515 1515 1515 1516 1516 1516 1517 1517 1517
1524 1524 1525 1526 1526 1526 1526 1526 1526 1526 1526 1526 1525 1525 1524 1524 1523 1523 1522 1522 1522 1522 1522 1522 1522 1521 1521 1520 1520 1519 1518 1517 1516 1515 1515 1515 1515 1516 1516 1517 1517 1517 1517
1523 1524 1524 1525 1526 1526 1526 1526 1526 1526 1526 1526 1525 1525 1525 1524 1524 1523 1523 1523 1522 1522 1522 1522 1521 1521 1521 1520 1520 1519 1518 1517 1517 1515 1515 1515 1515 1516 1516 1517 1517 1517 1517
1523 1523 1524 1525 1525 1525 1525 1526 1526 1526 1526 1526 1525 1525 1524 1524 1524 1523 1523 1523 1522 1522 1522 1522 1521 1521 1520 1520 1520 1520 1519 1518 1518 1517 1516 1516 1516 1516 1516 1517 1517 1517 1517
1522 1523 1524 1524 1525 1525 1525 1525 1526 1526 1526 1525 1525 1525 1524 1524 1523 1523 1523 1523 1522 1522 1522 1522 1521 1521 1521 1521 1520 1520 1520 1519 1519 1518 1518 1518 1517 1517 1517 1517 1517 1517 1518
1521 1522 1523 1523 1524 1524 1524 1525 1525 1525 1525 1525 1525 1524 1524 1523 1523 1522 1522 1522 1522 1522 1522 1521 1521 1521 1521 1521 1520 1520 1521 1520 1520 1519 1519 1519 1519 1518 1518 1518 1517 1518 1518
1520 1521 1522 1523 1523 1523 1524 1524 1524 1524 1525 1525 1524 1524 1523 1523 1523 1522 1522 1522 1521 1521 1521 1521 1521 1520 1520 1521 1521 1520 1521 1522 1521 1520 1520 1519 1520 1519 1519 1519 1518 1518 1518
1519 1520 1521 1521 1522 1522 1523 1523 1524 1524 1524 1524 1524 1523 1523 1522 1522 1522 1521 1521 1521 1521 1520 1520 1520 1520 1520 1521 1521 1522 1521 1521 1521 1522 1521 1521 1521 1520 1520 1519 1519 1519 1518
1518 1519 1520 1520 1521 1521 1521 1522 1523 1523 1523 1523 1523 1522 1522 1522 1521 1521 1521 1520 1521 1520 1520 1520 1520 1520 1520 1520 1521 1521 1522 1522 1522 1522 1522 1522 1521 1521 1521 1520 1520 1519 1519
1516 1517 1519 1519 1519 1520 1520 1521 1521 1521 1522 1522 1522 1521 1521 1521 1521 1520 1520 1520 1520 1520 1520 1520 1520 1520 1520 1520 1521 1521 1521 1521 1522 1521 1521 1522 1522 1522 1521 1521 1520 1519 1519
1515 1516 1517 1518 1518 1519 1519 1519 1520 1520 1520 1520 1520 1520 1520 1520 1520 1520 1519 1519 1519 1519 1519 1519 1519 1519 1520 1520 1520 1520 1520 1521 1521 1521 1521 1521 1521 1522 1521 1521 1520 1520 1519